Regional Weather Roundup
Issued by NWS

Home | Current Version | Previous Version | Text Only | Print | Product List | Glossary Off
Versions: 1 2 3 4 5 6 7 8 9 10 11 12 13 14 15 16 17 18 19 20 21 22 23 24 25 26 27 28 29 30 31 32 33 34 35 36 37 38 39 40 41 42 43 44 45

000
ASUS45 KSLC 252110
RWRUT

UTAH REGIONAL WEATHER ROUNDUP
NATIONAL WEATHER SERVICE SALT LAKE CITY UT
200 PM MST THU DEC 25 2014

UTZ001>011-023>025-252200-

NORTHERN UTAH

CITY           SKY/WX    TMP DP  RH WIND       PRES   REMARKS
BRIGHAM CITY   CLOUDY    30  26  86 S5        29.69R WCI  25
HILL AFB       FLURRIES  28  28  97 NW6       29.67R WCI  22
LOGAN          LGT SNOW  28  26  92 SE3       29.66R VSB 3/4
OGDEN          LGT SNOW  29  27  92 NW5       29.67R FOG     WCI  24
PROVO AIRPORT  LGT SNOW  28  23  80 CALM      29.69R
SALT LAKE CITY SNOW      29  28  96 N6        29.69R VSB 1/2 WCI  23
VERNAL         LGT SNOW  28  26  92 SW3       29.54R VSB 3/4
WENDOVER       PTSUNNY   32  18  55 NW12G25   29.73R WCI  23
HEBER CITY     LGT SNOW  28  21  74 CALM      29.61R
WEST JORDAN    CLOUDY    28  28 100 CALM      29.69R VSB 1/4

$$

UTZ012>022-026-027-252200-

SOUTHERN/CENTRAL UTAH

CITY           SKY/WX    TMP DP  RH WIND       PRES   REMARKS
BLANDING       CLOUDY    38  22  53 W13G21    29.60S WCI  30
BRYCE CANYON   FLURRIES  22  14  71 W16G24    29.58S WCI   8
CEDAR CITY     SNOW      25  21  85 NW13      29.69R VSB 1/2 WCI  14
DELTA          CLOUDY    30  21  71 NW7       29.71S WCI  23
MILFORD        CLOUDY    30  20  66 NE8       29.70S WCI  22
MOAB/CYNLANDS  CLOUDY    31  27  85 W10       29.55R WCI  22
PRICE          CLOUDY    28  16  60 NW12      29.54R WCI  18
ST GEORGE      MOCLDY    39  25  56 N21       29.75R WCI  29
KANAB            N/A     36  18  48 W13       29.69R WCI  27

$$

REGIONAL REPORTS     COLORADO/ARIZONA

CITY           SKY/WX    TMP DP  RH WIND       PRES   REMARKS
CRAIG, CO      LGT SNOW  32  29  88 SE5       29.48S FOG     WCI  27
GRAND JUNCTION CLOUDY    34  31  88 W8        29.50S WCI  27
RIFLE          LGT SNOW  30  27  88 CALM      29.51S FOG
MONTROSE       PTSUNNY   41  22  46 W10G18    29.52S
CORTEZ         CLOUDY    37  21  52 SW18      29.57S WCI  27
PAGE, AZ       CLOUDY    43  16  33 W14G21    29.60F
GRAND CANYON   PTSUNNY   33  14  45 W12G20    29.62F WCI  24
KINGMAN          N/A     47  12  24 N25G32    29.76S
FLAGSTAFF      LGT SNOW  29  21  72 SW13      29.63S WCI  19

$$

REGIONAL REPORTS    NEVADA/IDAHO/WYOMING

CITY           SKY/WX    TMP DP  RH WIND       PRES   REMARKS
LAS VEGAS, NV    N/A     51   7  16 NW22G33   29.78F
ELY            CLOUDY    24  16  71 NW9       29.74S WCI  14
ELKO           CLOUDY    28  17  63 NW13      29.84S WCI  17
POCATELLO, ID  CLOUDY    31  21  66 N18G29    29.72R WCI  19
EVANSTON, WY   SNOW      21  19  92 SW14      29.55R VSB 1/2 WCI   8
ROCK SPRINGS   LGT SNOW  19  15  84 NE29G41   29.55R VSB 3/4 WCI   0

$$


USA.gov is the U.S. government's official web portal to all federal, state and local government web resources and services.